Orbital elements:
2008 HW1                                                 Earth MOID = 0.1045 AU
Epoch 2008 May 14.0 TT = JDT 2454600.5                  MPC
M 351.90085              (2000.0)            P               Q
n   0.23717792     Peri.  248.82370     +0.93799090     -0.31601568
a   2.5847579      Node   129.30993     +0.34459436     +0.89478666
e   0.9606052      Incl.   10.61314     -0.03778623     +0.31542183
P   4.16           H   17.4           G   0.15           U   6
Residuals in seconds of arc
080330 703  0.5-  0.7-    080427 151  0.2-  0.2+    080427 854  0.1-  0.8+
080330 703  0.4+  0.1-    080427 151  0.2-  0.5+    080427 H06  0.2+  0.2+
080330 703  0.2+  0.3+    080427 151  0.4-  0.0     080427 854  0.1-  0.3+
080330 703  0.1-  0.8+    080427 151  0.2+  0.3-    080427 854  0.7-  0.5+
080414 703  0.3-  0.1-    080427 151  0.3-  0.5+    080427 H06  0.0   0.6+
080414 703  0.2+  0.1+    080427 595  0.4-  0.3+    080427 H06  0.4-  0.0
080414 703  0.1-  0.5-    080427 118  0.2+  0.1-    080427 H06  0.5-  0.1+
080425 704  0.6+  0.1-    080427 118  0.0   0.1-    080427 H06  0.1+  0.3-
080425 704  0.7+  0.4-    080427 118  0.1-  0.2-    080427 G96  0.0   0.1-
080425 704  0.2+  0.1-    080427 118  0.0   0.1-    080427 G96  0.1+  0.0
080425 704  0.4+  0.4-    080427 118  0.1-  0.1-    080427 G96  0.0   0.1-
080425 704  0.4+  0.4-    080427 B03  0.1+  0.4+    080427 G96  0.2-  0.1-
080426 198  0.0   0.2+    080427 B03  0.2+  0.2+    080427 F85  0.0   0.0
080426 198  0.1-  0.0     080427 B03  0.3-  0.2-    080427 F85  0.2+  0.0
080426 198  0.1-  0.2+    080427 B03  0.4-  0.2+    080427 F85  0.5+  0.3-
080426 198  0.1-  0.2+    080427 B03  0.3-  0.1-    080427 473  0.2+  0.0
080427 151  0.3+  0.4+    080427 H55  0.2-  0.2+    080428 473  0.3+  0.1+
080427 151  0.0   0.0     080427 H55  0.0   0.1+    080428 734  0.1+  0.2+
080427 151  0.7-  0.4-    080427 H55  0.0   0.1+    080428 734  0.1+  0.2+
080427 151  0.3-  0.3-    080427 H55  0.0   0.0     080428 734  0.0   0.5-
080427 595  0.4+  0.2+    080427 H55  0.1-  0.1+    080428 900  0.8+  1.5-
080427 151  0.2-  0.3-    080427 H55  0.4+  0.5-

Ephemeris:
2008 HW1                 a,e,i = 2.58, 0.96, 11                  q = 0.1018
Date    TT    R. A. (2000) Decl.     Delta      r     Elong.  Phase     V
2008 04 24    17 02.18   +08 31.3    0.489    1.380   131.6    33.0    17.9
2008 04 26    17 02.73   +10 51.2    0.447    1.346   131.7    33.9    17.7
2008 04 28    17 03.15   +13 37.8    0.406    1.311   131.5    35.1    17.5
2008 04 30    17 03.42   +16 58.8    0.366    1.276   130.6    36.8    17.2
2008 05 02    17 03.48   +21 04.5    0.328    1.240   128.9    39.2    17.0
2008 05 04    17 03.30   +26 09.2    0.292    1.204   126.2    42.5    16.8
2008 05 06    17 02.76   +32 30.9    0.259    1.167   122.0    47.2    16.6
2008 05 08    17 01.66   +40 30.9    0.231    1.129   115.9    53.5    16.4
2008 05 10    16 59.58   +50 27.6    0.207    1.091   107.7    61.9    16.4
2008 05 12    16 55.21   +62 22.5    0.192    1.051    97.1    72.4    16.5
2008 05 14    16 42.40   +75 39.8    0.185    1.011    84.9    84.6    16.7
2008 05 16    12 46.90   +88 14.7    0.189    0.970    72.2    97.1    17.2
2008 05 18    05 37.75   +78 15.4    0.203    0.928    60.3   108.7    17.9
2008 05 20    05 22.32   +67 49.2    0.224    0.885    50.1   118.7    18.6
2008 05 22    05 16.99   +59 19.1    0.252    0.841    41.5   127.0    19.5
2008 05 24    05 14.00   +52 30.8    0.284    0.795    34.5   133.8    20.3

Timothy B. Spahr             (C) Copyright 2008 MPC           M.P.E.C. 2008-H35

Read MPEC 2008-H34 Read MPEC 2008-H36


MPEC number:

Enter an MPEC number in one of the following forms:

  • 1997-B01 (the full form)
  • J97B01 (the packed version of the full form)
  • B01 (the abbreviated form)

